Find EGRS I

NORAD ID: 729 Int'l Des: 1964-001 Owner: ACE/GIMR Country: US operational
LEOCIRCULAR

リアルタイム位置

3D地球を読み込み中...

EGRS Iについて

説明を読み込み中...

次回通過

Passes for default location (London). Set your location on the main map for personalized predictions.

高度履歴

Loading altitude history...

軌道要素

1 729U 64001C 26105.30620458 -.00000018 00000-0 26593-4 0 9990
2 729 69.9004 67.7092 0013310 169.6753 190.4628 13.95219602167938
Epoch: Apr 15, 2026 • Age: 19 hours

現在のステータス

高度 931.4 km
速度 7.38 km/s
衛星直下点 -33.96°S, 176.08°E
タイプ other

Most Searched